Barrow Walney Island Airport


Codes: EGNL/BWF
Name: Barrow Walney Island Airport
City: Barrow-in-Furness
Country: United Kingdom
Elevation: 173 ft.
Website:
Wikipedia:

Photos at Barrow Walney Island Airport


   Photos courtesy of SpottingLog. You can add your own sightings and photos by signing up for a free trial today.



No photos found.

Weather at Barrow Walney Island Airport


Time (UTC)DescriptionTempratureWindCloud coverageVisibilityPressureHumidity
13-Jun-2024 03:00Overcast Clouds8°C7 mph, S100%10000m1014hPa75%
13-Jun-2024 06:00Overcast Clouds8°C11 mph, SE100%10000m1013hPa77%
13-Jun-2024 09:00Overcast Clouds10°C13 mph, SE100%10000m1011hPa79%
13-Jun-2024 12:00Light Rain13°C20 mph, SE100%10000m1007hPa79%
13-Jun-2024 15:00Moderate Rain12°C27 mph, SE100%6472m1004hPa92%
13-Jun-2024 18:00Moderate Rain11°C29 mph, SE100%10000m1000hPa92%
13-Jun-2024 21:00Light Rain12°C25 mph, S100%9089m997hPa93%
14-Jun-2024 00:00Light Rain13°C16 mph, SW100%9230m997hPa94%
14-Jun-2024 03:00Light Rain13°C13 mph, SW100%10000m996hPa91%
14-Jun-2024 06:00Light Rain13°C13 mph, SW100%10000m996hPa88%
14-Jun-2024 09:00Light Rain13°C13 mph, SW88%10000m996hPa84%
14-Jun-2024 12:00Light Rain13°C18 mph, SW89%10000m997hPa78%
14-Jun-2024 15:00Broken Clouds13°C11 mph, SW54%10000m997hPa72%
14-Jun-2024 18:00Scattered Clouds13°C9 mph, SW49%10000m996hPa69%
14-Jun-2024 21:00Light Rain12°C7 mph, S38%10000m997hPa77%
15-Jun-2024 00:00Scattered Clouds11°C7 mph, SW48%10000m996hPa76%
15-Jun-2024 03:00Light Rain11°C4 mph, S82%10000m995hPa76%
15-Jun-2024 06:00Light Rain11°C9 mph, SE87%10000m994hPa84%
15-Jun-2024 09:00Light Rain11°C11 mph, SW96%10000m995hPa80%
15-Jun-2024 12:00Light Rain12°C9 mph, SW92%10000m996hPa76%
15-Jun-2024 15:00Light Rain12°C9 mph, SW73%10000m996hPa75%
15-Jun-2024 18:00Broken Clouds12°C7 mph, NW55%10000m996hPa71%
15-Jun-2024 21:00Clear Sky11°C4 mph, W2%10000m997hPa78%
16-Jun-2024 00:00Few Clouds11°C7 mph, NW22%10000m998hPa83%
16-Jun-2024 03:00Scattered Clouds11°C9 mph, W41%10000m998hPa84%
16-Jun-2024 06:00Broken Clouds12°C9 mph, W70%10000m1000hPa81%
16-Jun-2024 09:00Light Rain13°C16 mph, SW99%10000m1000hPa86%
16-Jun-2024 12:00Light Rain12°C20 mph, SW99%10000m1001hPa88%
16-Jun-2024 15:00Light Rain14°C20 mph, SW100%10000m1001hPa82%
16-Jun-2024 18:00Light Rain14°C20 mph, SW100%10000m1002hPa82%
16-Jun-2024 21:00Light Rain13°C18 mph, SW99%10000m1003hPa90%
17-Jun-2024 00:00Light Rain13°C11 mph, SW98%10000m1003hPa93%
17-Jun-2024 03:00Light Rain12°C9 mph, W99%10000m1004hPa90%
17-Jun-2024 06:00Broken Clouds13°C9 mph, W81%10000m1005hPa88%
17-Jun-2024 09:00Light Rain13°C13 mph, W96%10000m1007hPa90%
17-Jun-2024 12:00Broken Clouds14°C16 mph, NW84%10000m1009hPa84%
17-Jun-2024 15:00Few Clouds14°C11 mph, W19%10000m1010hPa77%
17-Jun-2024 18:00Clear Sky14°C13 mph, NW8%10000m1011hPa83%
17-Jun-2024 21:00Clear Sky12°C16 mph, NW0%10000m1013hPa91%
18-Jun-2024 00:00Few Clouds11°C16 mph, NW12%10000m1013hPa89%